When you browse on this site, cookies collect data to enhance your experience and personalize the content and advertising you see.
Visit our Privacy Policy to learn more. By continuing to use the site, you agree to this use of cookies and data.

Hourly Weather Prutz

Today, 3 July, Friday

Time Temperature Precipitation Wind Pressure Humidity
00:00 +12°C° 2 mm 2 mps 633 mmHg 96%
01:00 +12°C° 0 mm 1 mps 634 mmHg 98%
02:00 +11°C° 2 mm 1 mps 633 mmHg 97%
03:00 +10°C° 2 mm 2 mps 633 mmHg 97%
04:00 +10°C° 2 mm 2 mps 633 mmHg 96%
05:00 +11°C° 0.4 mm 1 mps 634 mmHg 94%
06:00 +11°C° 0.4 mm 1 mps 634 mmHg 92%
07:00 +12°C° 0 mm 1 mps 635 mmHg 92%
08:00 +12°C° 0.2 mm 1 mps 635 mmHg 89%
09:00 +13°C° 0.2 mm 2 mps 635 mmHg 87%
10:00 +14°C° 0.2 mm 2 mps 635 mmHg 85%
11:00 +14°C° 0.5 mm 2 mps 635 mmHg 84%
12:00 +15°C° 0.5 mm 2 mps 636 mmHg 83%
13:00 +15°C° 0.5 mm 2 mps 636 mmHg 82%
14:00 +15°C° 0.5 mm 2 mps 636 mmHg 82%
15:00 +15°C° 0.5 mm 2 mps 635 mmHg 83%
16:00 +15°C° 0.5 mm 2 mps 635 mmHg 84%
17:00 +14°C° 0.3 mm 2 mps 635 mmHg 86%
18:00 +14°C° 0.3 mm 2 mps 636 mmHg 88%
19:00 +13°C° 0.3 mm 2 mps 636 mmHg 91%
20:00 +13°C° 0.1 mm 1 mps 636 mmHg 93%
21:00 +12°C° 0.1 mm 1 mps 636 mmHg 95%
22:00 +11°C° 0.1 mm 1 mps 636 mmHg 97%
23:00 +11°C° 0 mm 1 mps 636 mmHg 97%

Tomorrow, 4 July, Saturday

Time Temperature Precipitation Wind Pressure Humidity
00:00 +10°C° 0 mm 0 mps 636 mmHg 97%
01:00 +9°C° 0 mm 0 mps 636 mmHg 97%
02:00 +9°C° 0 mm 0 mps 636 mmHg 97%
03:00 +9°C° 0 mm 0 mps 636 mmHg 96%
04:00 +9°C° 0 mm 0 mps 636 mmHg 96%
05:00 +10°C° 0 mm 0 mps 636 mmHg 93%
06:00 +11°C° 0 mm 0 mps 636 mmHg 90%
07:00 +12°C° 0 mm 0 mps 637 mmHg 86%
08:00 +13°C° 0 mm 0 mps 637 mmHg 81%
09:00 +15°C° 0 mm 1 mps 637 mmHg 76%
10:00 +16°C° 0 mm 1 mps 638 mmHg 71%
11:00 +18°C° 0 mm 1 mps 638 mmHg 70%
12:00 +18°C° 0 mm 1 mps 638 mmHg 69%
13:00 +18°C° 0 mm 2 mps 638 mmHg 67%
14:00 +18°C° 0 mm 2 mps 638 mmHg 67%
15:00 +18°C° 0 mm 2 mps 638 mmHg 66%
16:00 +18°C° 0 mm 2 mps 638 mmHg 66%
17:00 +18°C° 0 mm 2 mps 638 mmHg 70%
18:00 +17°C° 0 mm 2 mps 637 mmHg 74%
19:00 +16°C° 0 mm 2 mps 637 mmHg 79%
20:00 +14°C° 0 mm 1 mps 637 mmHg 84%
21:00 +13°C° 0 mm 1 mps 637 mmHg 90%
22:00 +11°C° 0 mm 1 mps 636 mmHg 96%
23:00 +11°C° 0 mm 1 mps 636 mmHg 96%

Day after tomorrow, 5 July, Sunday

Time Temperature Precipitation Wind Pressure Humidity
00:00 +10°C° 0 mm 1 mps 637 mmHg 95%
01:00 +10°C° 0 mm 1 mps 637 mmHg 95%
02:00 +10°C° 0 mm 1 mps 636 mmHg 94%
03:00 +9°C° 0 mm 1 mps 636 mmHg 94%
04:00 +9°C° 0 mm 1 mps 635 mmHg 93%
05:00 +10°C° 0 mm 0 mps 636 mmHg 85%
06:00 +12°C° 0 mm 0 mps 637 mmHg 78%
07:00 +14°C° 0 mm 0 mps 638 mmHg 70%
08:00 +18°C° 0 mm 1 mps 638 mmHg 61%
09:00 +19°C° 0 mm 1 mps 639 mmHg 53%
10:00 +21°C° 0 mm 1 mps 639 mmHg 44%
11:00 +22°C° 0 mm 1 mps 639 mmHg 43%
12:00 +23°C° 0 mm 1 mps 639 mmHg 42%
13:00 +24°C° 0 mm 2 mps 639 mmHg 41%
14:00 +24°C° 0 mm 2 mps 639 mmHg 43%
15:00 +24°C° 0 mm 2 mps 639 mmHg 46%
16:00 +24°C° 0 mm 2 mps 639 mmHg 48%
17:00 +21°C° 0 mm 2 mps 638 mmHg 57%
18:00 +20°C° 0 mm 2 mps 638 mmHg 66%
19:00 +19°C° 0 mm 2 mps 637 mmHg 75%
20:00 +18°C° 0 mm 1 mps 637 mmHg 82%
21:00 +15°C° 0 mm 1 mps 636 mmHg 89%
22:00 +11°C° 0 mm 0 mps 635 mmHg 96%
23:00 +11°C° 0 mm 0 mps 635 mmHg 96%

6 July, Monday

Time Temperature Precipitation Wind Pressure Humidity
00:00 +11°C° 0 mm 0 mps 635 mmHg 97%
01:00 +11°C° 0 mm 0 mps 635 mmHg 97%
02:00 +11°C° 0 mm 0 mps 634 mmHg 97%
03:00 +11°C° 0 mm 0 mps 634 mmHg 97%
04:00 +12°C° 0 mm 1 mps 634 mmHg 97%
05:00 +13°C° 0 mm 1 mps 634 mmHg 94%
06:00 +13°C° 0 mm 0 mps 635 mmHg 91%
07:00 +15°C° 0 mm 0 mps 635 mmHg 87%
08:00 +18°C° 0 mm 1 mps 635 mmHg 82%
09:00 +19°C° 0 mm 1 mps 636 mmHg 77%
10:00 +19°C° 0 mm 2 mps 636 mmHg 72%
11:00 +19°C° 0.1 mm 2 mps 636 mmHg 72%
12:00 +19°C° 0.1 mm 2 mps 636 mmHg 73%
13:00 +20°C° 0.1 mm 2 mps 636 mmHg 73%
14:00 +19°C° 0.2 mm 2 mps 635 mmHg 77%
15:00 +18°C° 0.2 mm 2 mps 635 mmHg 82%
16:00 +17°C° 0.2 mm 2 mps 635 mmHg 86%
17:00 +16°C° 0.1 mm 2 mps 635 mmHg 89%
18:00 +15°C° 0.1 mm 2 mps 635 mmHg 92%
19:00 +14°C° 0.1 mm 2 mps 634 mmHg 95%
20:00 +14°C° 0.1 mm 2 mps 635 mmHg 95%
21:00 +13°C° 0.1 mm 2 mps 635 mmHg 96%
22:00 +12°C° 0.1 mm 2 mps 635 mmHg 96%
23:00 +12°C° 0 mm 2 mps 635 mmHg 96%

7 July, Tuesday

Time Temperature Precipitation Wind Pressure Humidity
00:00 +10°C° 0 mm 2 mps 634 mmHg 96%
01:00 +10°C° 0 mm 2 mps 634 mmHg 96%
02:00 +9°C° 0 mm 2 mps 634 mmHg 96%
03:00 +9°C° 0 mm 2 mps 634 mmHg 96%
04:00 +8°C° 0 mm 2 mps 634 mmHg 96%
05:00 +9°C° 0 mm 1 mps 634 mmHg 95%
06:00 +9°C° 0 mm 1 mps 634 mmHg 94%
07:00 +9°C° 0 mm 1 mps 634 mmHg 93%
08:00 +10°C° 0 mm 1 mps 634 mmHg 90%
09:00 +10°C° 0 mm 2 mps 635 mmHg 87%
10:00 +12°C° 0 mm 2 mps 635 mmHg 84%
11:00 +12°C° 0 mm 2 mps 635 mmHg 82%
12:00 +13°C° 0 mm 2 mps 635 mmHg 80%
13:00 +13°C° 0 mm 2 mps 635 mmHg 78%
14:00 +13°C° 0 mm 2 mps 636 mmHg 76%
15:00 +13°C° 0 mm 2 mps 636 mmHg 75%
16:00 +14°C° 0 mm 2 mps 636 mmHg 74%
17:00 +13°C° 0 mm 2 mps 636 mmHg 77%
18:00 +13°C° 0 mm 2 mps 636 mmHg 79%
19:00 +12°C° 0 mm 2 mps 636 mmHg 82%
20:00 +10°C° 0 mm 2 mps 636 mmHg 86%
21:00 +10°C° 0 mm 1 mps 636 mmHg 90%
22:00 +10°C° 0 mm 1 mps 636 mmHg 94%
23:00 +9°C° 0 mm 1 mps 636 mmHg 94%

8 July, Wednesday

Time Temperature Precipitation Wind Pressure Humidity
00:00 +8°C° 0 mm 1 mps 636 mmHg 94%
01:00 +7°C° 0 mm 0 mps 636 mmHg 94%
02:00 +6°C° 0 mm 0 mps 635 mmHg 94%
03:00 +5°C° 0 mm 0 mps 635 mmHg 94%
04:00 +4°C° 0 mm 0 mps 635 mmHg 93%
05:00 +6°C° 0 mm 0 mps 636 mmHg 84%
06:00 +8°C° 0 mm 0 mps 637 mmHg 75%
07:00 +11°C° 0 mm 0 mps 637 mmHg 65%
08:00 +13°C° 0 mm 0 mps 638 mmHg 57%
09:00 +16°C° 0 mm 1 mps 639 mmHg 48%
10:00 +19°C° 0 mm 1 mps 639 mmHg 39%
11:00 +20°C° 0 mm 1 mps 640 mmHg 37%
12:00 +21°C° 0 mm 1 mps 640 mmHg 36%
13:00 +21°C° 0 mm 2 mps 640 mmHg 34%
14:00 +23°C° 0 mm 2 mps 640 mmHg 36%
15:00 +23°C° 0 mm 2 mps 640 mmHg 38%
16:00 +23°C° 0 mm 2 mps 640 mmHg 39%
17:00 +20°C° 0 mm 2 mps 639 mmHg 49%
18:00 +19°C° 0 mm 2 mps 639 mmHg 58%
19:00 +19°C° 0 mm 1 mps 639 mmHg 68%
20:00 +15°C° 0 mm 1 mps 638 mmHg 75%
21:00 +13°C° 0 mm 1 mps 638 mmHg 83%
22:00 +10°C° 0 mm 0 mps 637 mmHg 91%
23:00 +11°C° 0 mm 1 mps 637 mmHg 90%
Show more